| time (UTC) | temp F | wind direction | speed MPH | gust MPH | rain 1hr in | rain 24hr in | rain mn in | humidity % | barometer mb |
| 20260505124512 | 44 | 250 | 0.0 | 3.0 | 0.00 | 0.00 | 0.00 | 82 | 1011.3 |
| 20260505123010 | 44 | 290 | 1.0 | 2.0 | 0.00 | 0.00 | 0.00 | 83 | 1011.2 |
| 20260505121510 | 44 | 298 | 1.0 | 3.0 | 0.00 | 0.00 | 0.00 | 82 | 1011.1 |
| 20260505120026 | 44 | 264 | 0.0 | 2.0 | 0.00 | 0.00 | 0.00 | 83 | 1011.0 |
| 20260505114505 | 44 | 284 | 0.0 | 2.0 | 0.00 | 0.00 | 0.00 | 81 | 1010.9 |
| 20260505113035 | 45 | 294 | 1.0 | 3.0 | 0.00 | 0.00 | 0.00 | 81 | 1010.9 |
| 20260505111529 | 46 | 313 | 0.0 | 1.0 | 0.00 | 0.00 | 0.00 | 79 | 1010.8 |
| 20260505101524 | 46 | 305 | 1.0 | 3.0 | 0.00 | 0.00 | 0.00 | 78 | 1010.4 |
| 20260505100048 | 47 | 265 | 1.0 | 3.0 | 0.00 | 0.00 | 0.00 | 77 | 1010.3 |
| 20260505094544 | 48 | 302 | 1.0 | 2.0 | 0.00 | 0.00 | 0.00 | 76 | 1010.2 |
| 20260505093014 | 48 | 257 | 0.0 | 2.0 | 0.00 | 0.00 | 0.00 | 74 | 1010.1 |
| 20260505091523 | 49 | 258 | 0.0 | 1.0 | 0.00 | 0.00 | 0.00 | 73 | 1010.1 |
| 20260505090016 | 50 | 273 | 0.0 | 2.0 | 0.00 | 0.00 | 0.00 | 72 | 1010.1 |
| 20260505084507 | 49 | 296 | 0.0 | 1.0 | 0.00 | 0.00 | 0.00 | 75 | 1010.1 |
| 20260505083007 | 49 | 290 | 0.0 | 3.0 | 0.00 | 0.00 | 0.00 | 74 | 1010.1 |
| 20260505081510 | 49 | 284 | 1.0 | 2.0 | 0.00 | 0.00 | 0.00 | 75 | 1010.1 |
| 20260505080038 | 50 | 302 | 2.0 | 3.0 | 0.00 | 0.00 | 0.00 | 74 | 1010.1 |
| 20260505074530 | 50 | 259 | 0.0 | 3.0 | 0.00 | 0.00 | 0.00 | 73 | 1010.1 |
| 20260505073111 | 51 | 313 | 0.0 | 3.0 | 0.00 | 0.00 | 0.00 | 71 | 1010.0 |
| 20260505071600 | 51 | 302 | 1.0 | 4.0 | 0.00 | 0.00 | 0.00 | 71 | 1009.9 |
| 20260505070052 | 52 | 307 | 1.0 | 4.0 | 0.00 | 0.00 | 0.00 | 70 | 1009.7 |
| 20260505064551 | 52 | 293 | 2.0 | 3.0 | 0.00 | 0.00 | 0.00 | 70 | 1009.6 |
| 20260505063047 | 53 | 315 | 1.0 | 4.0 | 0.00 | 0.00 | 0.00 | 69 | 1009.5 |
| 20260505061552 | 53 | 311 | 1.0 | 4.0 | 0.00 | 0.00 | 0.00 | 68 | 1009.5 |
| 20260505060042 | 53 | 299 | 0.0 | 4.0 | 0.00 | 0.00 | 0.00 | 67 | 1009.4 |
| 20260505054559 | 54 | 327 | 1.0 | 4.0 | 0.00 | 0.00 | 0.00 | 65 | 1009.5 |
| 20260505053050 | 55 | 324 | 1.0 | 4.0 | 0.00 | 0.00 | 0.00 | 64 | 1009.3 |
| 20260505051542 | 55 | 340 | 2.0 | 5.0 | 0.00 | 0.00 | 0.00 | 64 | 1009.3 |
| 20260505041512 | 56 | 316 | 2.0 | 5.0 | 0.00 | 0.00 | 0.00 | 62 | 1009.2 |
| 20260505040006 | 58 | 277 | 0.0 | 2.0 | 0.00 | 0.00 | 0.00 | 57 | 1009.1 |
| 20260505034509 | 59 | 290 | 0.0 | 2.0 | 0.00 | 0.00 | 0.00 | 56 | 1008.9 |
| 20260505033003 | 62 | 282 | 0.0 | 1.0 | 0.00 | 0.00 | 0.00 | 51 | 1008.9 |
| 20260505031509 | 64 | 119 | 0.0 | 3.0 | 0.00 | 0.00 | 0.00 | 48 | 1008.7 |
| 20260505030002 | 66 | 134 | 0.0 | 4.0 | 0.00 | 0.00 | 0.00 | 44 | 1008.6 |
| 20260505024503 | 67 | 112 | 2.0 | 12.0 | 0.00 | 0.00 | 0.00 | 42 | 1008.3 |
| 20260505023120 | 69 | 107 | 2.0 | 6.0 | 0.00 | 0.00 | 0.00 | 40 | 1008.4 |
| 20260505021559 | 70 | 156 | 5.0 | 13.0 | 0.00 | 0.00 | 0.00 | 37 | 1008.3 |
| 20260505020057 | 71 | 138 | 8.0 | 15.0 | 0.00 | 0.00 | 0.00 | 35 | 1008.1 |
| 20260505014605 | 72 | 130 | 9.0 | 17.0 | 0.00 | 0.00 | 0.00 | 34 | 1008.1 |
| 20260505013107 | 72 | 109 | 8.0 | 19.0 | 0.00 | 0.00 | 0.00 | 33 | 1008.2 |
| 20260505011554 | 73 | 95 | 9.0 | 16.0 | 0.00 | 0.00 | 0.00 | 33 | 1008.2 |
| 20260505010053 | 74 | 96 | 9.0 | 18.0 | 0.00 | 0.00 | 0.00 | 33 | 1008.2 |
| 20260505004556 | 74 | 126 | 7.0 | 17.0 | 0.00 | 0.00 | 0.00 | 31 | 1008.3 |
| 20260505003047 | 74 | 87 | 11.0 | 19.0 | 0.00 | 0.00 | 0.00 | 33 | 1008.2 |
| 20260505001551 | 74 | 111 | 8.0 | 18.0 | 0.00 | 0.00 | 0.00 | 34 | 1008.3 |
| 20260505000105 | 74 | 123 | 12.0 | 21.0 | 0.00 | 0.00 | 0.00 | 33 | 1008.2 |
| 20260504234545 | 75 | 109 | 9.0 | 17.0 | 0.00 | 0.00 | 0.00 | 35 | 1008.2 |
| 20260504233016 | 75 | 105 | 8.0 | 19.0 | 0.00 | 0.00 | 0.00 | 33 | 1008.2 |
| 20260504231515 | 75 | 153 | 10.0 | 25.0 | 0.00 | 0.00 | 0.00 | 34 | 1008.4 |
| 20260504230010 | 75 | 110 | 8.0 | 24.0 | 0.00 | 0.00 | 0.00 | 32 | 1008.4 |
| 20260504224510 | 75 | 116 | 13.0 | 21.0 | 0.00 | 0.00 | 0.00 | 32 | 1008.5 |
| 20260504223008 | 75 | 132 | 11.0 | 20.0 | 0.00 | 0.00 | 0.00 | 35 | 1008.6 |
| 20260504221509 | 75 | 138 | 11.0 | 21.0 | 0.00 | 0.00 | 0.00 | 33 | 1008.8 |
| 20260504220008 | 75 | 101 | 9.0 | 19.0 | 0.00 | 0.00 | 0.00 | 33 | 1008.7 |
| 20260504214535 | 76 | 117 | 11.0 | 19.0 | 0.00 | 0.00 | 0.00 | 32 | 1008.8 |
| 20260504213041 | 76 | 144 | 10.0 | 18.0 | 0.00 | 0.00 | 0.00 | 31 | 1008.9 |
| 20260504211528 | 76 | 128 | 9.0 | 21.0 | 0.00 | 0.00 | 0.00 | 31 | 1009.0 |
| 20260504210028 | 76 | 134 | 12.0 | 20.0 | 0.00 | 0.00 | 0.00 | 28 | 1009.1 |
| 20260504204525 | 76 | 114 | 11.0 | 20.0 | 0.00 | 0.00 | 0.00 | 29 | 1009.1 |
| 20260504203027 | 76 | 131 | 11.0 | 19.0 | 0.00 | 0.00 | 0.00 | 35 | 1009.2 |
| 20260504201518 | 76 | 101 | 10.0 | 25.0 | 0.00 | 0.00 | 0.00 | 33 | 1009.3 |
| 20260504200016 | 74 | 144 | 6.0 | 12.0 | 0.00 | 0.00 | 0.00 | 40 | 1009.4 |
| 20260504194512 | 73 | 146 | 3.0 | 7.0 | 0.00 | 0.00 | 0.00 | 42 | 1009.6 |
| 20260504193009 | 72 | 162 | 4.0 | 11.0 | 0.00 | 0.00 | 0.00 | 43 | 1009.8 |
| 20260504191504 | 72 | 78 | 2.0 | 5.0 | 0.00 | 0.00 | 0.00 | 40 | 1010.0 |
| 20260504190002 | 71 | 77 | 1.0 | 5.0 | 0.00 | 0.00 | 0.00 | 39 | 1010.1 |
| 20260504184608 | 71 | 173 | 0.0 | 2.0 | 0.00 | 0.00 | 0.00 | 44 | 1010.1 |
| 20260504183106 | 69 | 200 | 2.0 | 4.0 | 0.00 | 0.00 | 0.00 | 43 | 1010.3 |
| 20260504181557 | 68 | 219 | 1.0 | 3.0 | 0.00 | 0.00 | 0.00 | 43 | 1010.5 |
| 20260504180050 | 68 | 153 | 1.0 | 2.0 | 0.00 | 0.00 | 0.00 | 51 | 1010.6 |
| 20260504174547 | 66 | 34 | 0.0 | 4.0 | 0.00 | 0.00 | 0.00 | 48 | 1010.7 |
| 20260504173045 | 65 | 145 | 0.0 | 3.0 | 0.00 | 0.00 | 0.00 | 50 | 1010.7 |
| 20260504171539 | 64 | 107 | 1.0 | 4.0 | 0.00 | 0.00 | 0.00 | 54 | 1010.9 |